Location: Helsinki
(60.1699°N, 24.9384°E)
Time: 23:16:47
(UTC+02:00)

Transit 4A - Pass Details

Date: 27 October 2020
Orbit: 862 x 982 km, 66.8° (Epoch: 25 November)

Event Time Altitude Azimuth Distance (km) Brightness Sun altitude
Rises 17:11:07 0° 227° (SW) 3,625 12.3 -4.9°
Reaches altitude 10° 17:13:38 10° 227° (SW) 2,696 11.5 -5.2°
Maximum altitude 17:19:58 86° 139° (SE) 987 8.1 -6.0°
Drops below altitude 10° 17:26:27 10° 52° (NE) 2,748 9.8 -6.7°
Enters shadow 17:27:35 - 52° (NE) 3,165 10.1 -6.9°
